Location: Saint-Palais-sur-Mer
(45.6429°N, 1.0859°W)
Time: 23:52:26
(UTC+01:00)

Vanguard 1 - Pass Details

Date: 16 February 2026
Orbit: 653 x 3818 km, 34.2° (Epoch: 12 March)

Event Time Altitude Azimuth Distance (km) Brightness Sun altitude
Rises 00:45:10 0° 279° (W) 7,651 14.8 -56.0°
Reaches altitude 10° 00:53:01 10° 264° (W) 6,865 14.3 -56.3°
Enters shadow 01:01:19 17° 243° (WSW) 6,310 13.9 -56.6°
